Weather Roundup
Issued by NWS Chicago, IL

Home | Current Version | Previous Version | Graphics & Text | Print | Product List | Glossary On
Versions: 1 2 3 4 5 6 7 8 9 10 11 12 13 14 15 16 17 18 19 20 21 22 23 24 25 26 27 28 29 30 31 32 33 34 35 36 37 38 39 40 41 42 43 44 45 46 47 48 49 50
000
NZUS59 KLOT 272222
HRRLOT

CHICAGO AREA WEATHER ROUNDUP
NATIONAL WEATHER SERVICE CHICAGO/ROMEOVILLE IL
500 PM CDT THU AUG 27 2015

NOTE: "FAIR" INDICATES FEW OR NO CLOUDS BELOW 12,000 FEET WITH NO
SIGNIFICANT WEATHER AND/OR OBSTRUCTIONS TO VISIBILITY.

* THESE STATIONS ARE NOT UNDER NWS QUALITY CONTROL. THEY ALSO MAY NOT
  REPORT WEATHER SUCH AS PRECIPITATION OR FOG.

ILZ005-006-012>014-019>023-272300-
NORTHEAST ILLINOIS

CITY           SKY/WX    TMP DP  RH WIND       PRES   REMARKS
OHARE            N/A     73  54  51 E14       30.13S
MIDWAY           N/A     73  55  53 E12       30.13F
AURORA           N/A     71  58  63 S5        30.14S
LANSING*         N/A     71  54  55 CALM      30.14S
JOLIET*          N/A     72  58  60 S3        30.14S
WAUKEGAN         N/A     68  55  63 SE8       30.13F
DUPAGE AIRPORT   N/A     72  53  51 SE5       30.12F
WHEELING         N/A     71  52  50 E9        30.15S
KANKAKEE*        N/A     72  59  62 CALM      30.14S
MORRIS*          N/A     71  60  68 E3        30.13S
LEWIS AIRPORT*   N/A     71  54  55 S3        30.14S
NORTHERLY IS     N/A     68  56  65 E7          N/A
$$

WIZ051-052-058>065-066-070>072-272300-
SOUTHEAST WISCONSIN

CITY           SKY/WX    TMP DP  RH WIND       PRES   REMARKS
MILWAUKEE        N/A     70  54  56 SE15      30.12F
KENOSHA*         N/A     70  52  52 SE13      30.14S
RACINE*          N/A     69  52  54 S13       30.15F
BURLINGTON       N/A     71  53  54 CALM      30.12F
WAUKESHA       MOSUNNY   72  54  53 S7        30.13S
WEST BEND        N/A     72  55  56 E6        30.11S
$$

INZ001>003-010>013-019-020-272300-
NORTHWEST INDIANA

CITY           SKY/WX    TMP DP  RH WIND       PRES   REMARKS
GARY*          PTSUNNY   72  55  56 NE6       30.15F
MICHIGAN CITY* NOT AVBL
RENSSELAER*    NOT AVBL
VALPARAISO       N/A     72  56  57 NE3       30.15F
$$

LMZ740>746-272300-
SOUTHERN LAKE MICHIGAN

STATION/POSITION TIME  SKY/WX   TEMP WIND        PRES    VSBY
                                AIR  DIR/SP/G
                 (UTC)          (F)  (DEG/KT/KT) (MB)    (MI)
HARRISON CRIB    2200            67  100/  8/  9   N/A
BURNHAM HARBOR   2200            68   80/  5/  8   N/A
CALUMET HARBOR   2100            67   50/  7/  9   N/A
BURNS HARBOR     2100            67   30/  5/  6 1021.7S
MICHIGAN CITY    2200            69  320/  4/  5   N/A
$$

ABBREVIATIONS USED IN REMARKS
   TC - TEMPERATURE IN CELSIUS
  WCI - WIND CHILL INDEX
   HX - HEAT INDEX
  VSB - VISIBILITY
$$



USA.gov is the U.S. government's official web portal to all federal, state and local government web resources and services.